Terug naar catalogus

COSMOS 2054

ActiefNavigatieGEO
NORAD 20391·PAYLOAD·🇷🇺 Russia

Gelanceerd Dec 27, 1989 vanaf Baikonur Cosmodrome

Loading…

TLE

VersSource: Space-Track

Epoch: Sep 14, 2026, 12:33 UTC

1 20391U 89101A   26257.52350745  .00000065  00000-0  00000-0 0  9998
2 20391  12.1482 333.6346 0003960 231.0987 163.8703  1.00302072134765

Volg COSMOS 2054 in realtime met AllMySat

Download on the App Store